STARLINK-2170 (47753 NORAD) Tracking and Keplerian Element Data

This shows tracking and keplerian element data for the satellite.

Feedback or suggestion? Click here.




ElementValue
Catalog47753
NameSTARLINK-2170
Epoch Orbit1789
Epoch Day170.4700087
Epoch Year2021
RAAN31.9526
Inclination53.0499
Eccentricity0.0001963
Argument of Perigee100.9222
Mean Anonmoly259.1988
Mean Motion15.06390005
Decay Rate-4.71E-06
L11 47753U 21017AH 21170.47000870 -.00000471 00000-0 -12746-4 0 9992
L22 47753 53.0499 31.9526 0001963 100.9222 259.1988 15.06390005 17895

Live tracking and technical data element details for STARLINK-2170 (NORAD 47753). STARLINK-2170 can be tracked NOW for your location showing map with azimuth and elevation plus other details from your city location.

Track the satellite on the map from your city or location and see movement details for azimuth, elevation, latitude, longitude, range, height, and movement on the map or in text.







IsCatalogInMostPopularTable: catalog: 47753, numindb: 42
Update: records affected: 1



GetName: 47753 STARLINK-2170

Hit Count: updated at: Mon, 21 Jun 2021 03:12:25 GMT